EW6196 Weather Reports


Display with metric or nautical units.
time (UTC)temp
F
wind
direction
speed
MPH
gust
MPH
rain 1hr
in
rain 24hr
in
rain mn
in
humidity
%
barometer
mb
20220817012849 75 204 0.0 0.0 0.00 0.02 0.01 59 1018.9
20220817012626 75 204 0.0 0.0 0.00 0.02 0.01 58 1018.9
20220817012351 75 204 0.0 0.0 0.00 0.02 0.01 59 1018.9
20220817011618 76 204 0.0 0.0 0.00 0.02 0.01 57 1018.9
20220817011221 76 204 0.0 2.0 0.00 0.02 0.01 55 1018.9
20220817011116 76 204 0.0 1.0 0.00 0.02 0.01 56 1018.9
20220817010343 76 204 0.0 1.0 0.00 0.02 0.01 56 1018.9
20220817005341 76 204 0.0 2.0 0.00 0.02 0.01 55 1018.9
20220817005116 77 204 0.0 0.0 0.00 0.02 0.01 53 1018.9
20220817004841 76 204 0.0 0.0 0.00 0.02 0.01 54 1018.9
20220817003848 77 204 1.0 4.0 0.00 0.02 0.01 52 1019.1
20220817003841 77 204 0.0 0.0 0.00 0.02 0.01 53 1019.1
20220817003341 77 204 1.0 3.0 0.00 0.02 0.01 53 1019.1
20220817002335 77 204 1.0 4.0 0.00 0.02 0.01 52 1019.1
20220817002327 78 188 1.0 4.0 0.00 0.02 0.01 52 1019.1
20220817001931 78 188 1.0 4.0 0.00 0.02 0.01 52 1019.1
20220817000818 78 178 1.0 7.0 0.00 0.02 0.01 52 1019.1
20220817000809 78 212 2.0 8.0 0.00 0.02 0.01 52 1018.9
20220817000413 78 213 2.0 7.0 0.00 0.02 0.01 51 1019.1
20220816235305 78 209 2.0 8.0 0.00 0.02 0.01 52 1018.9
20220816234755 79 159 3.0 7.0 0.00 0.02 0.01 52 1018.8
20220816234248 79 205 3.0 7.0 0.00 0.02 0.01 52 1018.8
20220816233742 79 174 2.0 6.0 0.00 0.02 0.01 52 1018.8
20220816233333 79 200 2.0 6.0 0.00 0.02 0.01 52 1018.8
20220816233102 79 208 2.0 4.0 0.00 0.02 0.01 52 1018.7
20220816231717 79 213 1.0 5.0 0.00 0.02 0.01 51 1018.8
20220816231212 79 219 2.0 5.0 0.00 0.02 0.01 51 1018.8
20220816231205 80 156 3.0 7.0 0.00 0.02 0.01 50 1018.7
20220816231038 79 196 3.0 6.0 0.00 0.02 0.01 50 1018.7
20220816225655 80 163 3.0 7.0 0.00 0.02 0.01 49 1018.7
20220816225650 81 233 2.0 7.0 0.00 0.02 0.01 50 1018.6
20220816225141 81 219 3.0 7.0 0.00 0.02 0.01 50 1018.6
20220816224406 81 153 3.0 7.0 0.00 0.02 0.01 49 1018.7
20220816223859 81 140 3.0 8.0 0.00 0.02 0.01 49 1018.7
20220816223122 82 198 3.0 8.0 0.00 0.02 0.01 48 1018.6
20220816222617 82 172 3.0 7.0 0.00 0.02 0.01 46 1018.6
20220816222341 82 175 3.0 9.0 0.00 0.02 0.01 46 1018.7
20220816221835 82 187 3.0 9.0 0.00 0.02 0.01 47 1018.7
20220816221057 82 189 3.0 10.0 0.00 0.02 0.01 47 1018.6
20220816220552 82 178 3.0 10.0 0.00 0.02 0.01 47 1018.7
20220816220048 82 164 3.0 6.0 0.00 0.02 0.01 48 1018.7
20220816220042 82 150 3.0 8.0 0.00 0.02 0.01 47 1018.7
20220816215034 82 232 3.0 8.0 0.00 0.02 0.01 47 1018.7
20220816214757 82 241 3.0 8.0 0.00 0.02 0.01 47 1018.7
20220816214253 82 227 3.0 7.0 0.00 0.02 0.01 48 1018.8
20220816213749 82 151 3.0 9.0 0.00 0.02 0.01 49 1018.8
20220816213019 82 220 3.0 11.0 0.00 0.02 0.01 49 1018.8
20220816212748 82 209 3.0 11.0 0.00 0.02 0.01 49 1018.7
20220816212249 82 185 3.0 7.0 0.00 0.02 0.01 51 1018.8
20220816211745 81 189 4.0 10.0 0.00 0.02 0.01 51 1018.8
20220816211243 81 144 4.0 10.0 0.00 0.02 0.01 50 1018.9
20220816210742 81 181 3.0 8.0 0.00 0.02 0.01 52 1018.9
20220816210241 81 169 4.0 7.0 0.00 0.02 0.01 51 1019.1
20220816205512 81 184 3.0 7.0 0.00 0.02 0.01 52 1019.1
20220816205508 81 180 3.0 7.0 0.00 0.02 0.01 51 1019.1
20220816204739 80 158 3.0 9.0 0.00 0.02 0.01 54 1019.1
20220816204009 80 140 4.0 9.0 0.00 0.02 0.01 53 1019.2
20220816203509 80 148 3.0 8.0 0.00 0.02 0.01 53 1019.1
20220816203342 80 190 3.0 7.0 0.00 0.02 0.01 52 1019.1
20220816203237 80 209 3.0 7.0 0.00 0.02 0.01 52 1019.2
20220816202005 81 200 3.0 9.0 0.00 0.02 0.01 51 1019.1
20220816201509 81 169 3.0 8.0 0.00 0.02 0.01 50 1019.2
20220816201505 81 173 3.0 9.0 0.00 0.02 0.01 51 1019.2
20220816201108 80 194 3.0 7.0 0.00 0.02 0.01 53 1019.3
20220816200003 80 167 3.0 7.0 0.00 0.02 0.01 55 1019.3
20220816195502 80 147 3.0 8.0 0.00 0.02 0.01 53 1019.3
20220816195234 80 148 4.0 9.0 0.00 0.02 0.01 53 1019.4
20220816194505 80 142 3.0 9.0 0.00 0.02 0.01 53 1019.4
20220816194501 80 146 3.0 9.0 0.01 0.02 0.01 53 1019.4
20220816193458 79 151 4.0 8.0 0.01 0.02 0.01 54 1019.4
20220816192958 79 145 4.0 10.0 0.01 0.02 0.01 56 1019.4
20220816192459 79 165 3.0 10.0 0.01 0.02 0.01 55 1019.5
20220816191730 78 142 3.0 7.0 0.01 0.02 0.01 58 1019.6
20220816190958 78 157 3.0 7.0 0.01 0.02 0.01 58 1019.6
20220816190730 78 147 3.0 7.0 0.01 0.02 0.01 57 1019.7
20220816185959 78 180 2.0 6.0 0.01 0.02 0.01 58 1019.8
20220816185457 78 140 2.0 7.0 0.01 0.02 0.01 59 1019.7
20220816184954 78 177 3.0 7.0 0.01 0.02 0.01 60 1019.9
20220816184454 78 173 4.0 7.0 0.01 0.02 0.01 58 1019.9
20220816183955 78 160 3.0 7.0 0.00 0.01 0.00 59 1019.9
20220816183454 78 150 2.0 7.0 0.00 0.01 0.00 59 1020.0
20220816183226 78 153 2.0 6.0 0.00 0.01 0.00 59 1020.0
20220816182453 78 153 2.0 8.0 0.00 0.01 0.00 58 1020.0
20220816181953 79 151 2.0 8.0 0.00 0.01 0.00 58 1020.0
20220816181452 79 191 2.0 6.0 0.00 0.01 0.00 58 1020.0
20220816180953 79 192 2.0 8.0 0.00 0.02 0.00 58 1020.1
20220816180949 79 202 3.0 8.0 0.00 0.02 0.00 60 1020.1
20220816180219 78 183 3.0 8.0 0.00 0.02 0.00 60 1020.1
20220816175449 78 162 3.0 8.0 0.00 0.02 0.00 62 1020.2
20220816175217 78 171 3.0 9.0 0.00 0.02 0.00 63 1020.1
20220816175052 77 148 4.0 9.0 0.00 0.02 0.00 65 1020.2
20220816173946 77 147 3.0 8.0 0.00 0.02 0.00 64 1020.1
20220816173717 77 145 3.0 8.0 0.00 0.02 0.00 65 1020.1
20220816173223 78 161 3.0 9.0 0.00 0.02 0.00 65 1020.2
20220816172945 77 166 4.0 8.0 0.00 0.02 0.00 64 1020.2
20220816172446 78 152 4.0 9.0 0.00 0.02 0.00 64 1020.2
20220816171442 78 185 4.0 9.0 0.00 0.02 0.00 64 1020.2
20220816171211 77 157 4.0 9.0 0.00 0.02 0.00 65 1020.2
20220816171047 77 165 3.0 9.0 0.00 0.02 0.00 65 1020.2
20220816170711 77 146 4.0 9.0 0.00 0.02 0.00 64 1020.2
20220816170046 77 146 3.0 8.0 0.00 0.02 0.00 65 1020.2
20220816165208 77 213 3.0 7.0 0.00 0.02 0.00 66 1020.1
20220816165042 77 192 3.0 8.0 0.00 0.02 0.00 66 1020.2
20220816163936 77 157 3.0 7.0 0.00 0.02 0.00 67 1020.2
20220816163434 77 157 3.0 6.0 0.00 0.02 0.00 68 1020.2
20220816163313 77 161 3.0 10.0 0.00 0.02 0.00 67 1020.2
20220816163205 76 130 3.0 10.0 0.00 0.02 0.00 67 1020.2
20220816161932 76 200 3.0 10.0 0.00 0.02 0.00 68 1020.2
20220816161432 76 171 3.0 10.0 0.00 0.02 0.00 69 1020.2
20220816161203 75 134 3.0 7.0 0.00 0.02 0.00 72 1020.3
20220816160432 75 159 3.0 9.0 0.00 0.02 0.00 71 1020.3
20220816160204 75 177 3.0 9.0 0.00 0.02 0.00 71 1020.4
20220816155425 75 163 2.0 8.0 0.00 0.02 0.00 71 1020.5
20220816155421 74 184 3.0 10.0 0.00 0.02 0.00 73 1020.5
20220816154644 74 142 3.0 10.0 0.00 0.02 0.00 72 1020.5
20220816153909 74 155 3.0 7.0 0.00 0.02 0.00 73 1020.5
20220816153905 74 162 3.0 6.0 0.00 0.02 0.00 73 1020.5
20220816153359 74 189 2.0 5.0 0.00 0.02 0.00 74 1020.5
20220816152621 74 204 2.0 5.0 0.00 0.02 0.00 75 1020.5
20220816152116 73 195 2.0 7.0 0.00 0.02 0.00 76 1020.5
20220816151609 73 213 3.0 7.0 0.00 0.02 0.00 77 1020.5
20220816151203 73 156 3.0 6.0 0.00 0.02 0.00 77 1020.5
20220816151100 72 205 3.0 5.0 0.00 0.02 0.00 77 1020.5
20220816150322 72 171 2.0 5.0 0.00 0.02 0.00 78 1020.5
20220816145541 72 177 2.0 4.0 0.00 0.02 0.00 78 1020.5
20220816145415 72 178 2.0 4.0 0.00 0.02 0.00 78 1020.5
20220816144302 72 207 2.0 6.0 0.00 0.02 0.00 79 1020.5
20220816144028 72 210 2.0 6.0 0.00 0.02 0.00 78 1020.5
20220816143524 72 176 2.0 6.0 0.00 0.02 0.00 78 1020.5
20220816143401 71 160 2.0 6.0 0.00 0.02 0.00 78 1020.4
20220816143024 72 201 2.0 6.0 0.00 0.02 0.00 77 1020.4
20220816141751 71 173 2.0 6.0 0.00 0.02 0.00 78 1020.5
20220816141523 71 165 2.0 6.0 0.00 0.02 0.00 80 1020.5
20220816141021 71 181 2.0 4.0 0.00 0.02 0.00 80 1020.5
20220816140519 71 181 2.0 4.0 0.00 0.02 0.00 81 1020.5
20220816135749 70 181 1.0 4.0 0.00 0.02 0.00 81 1020.5
20220816135249 70 182 0.0 3.0 0.00 0.02 0.00 82 1020.5
20220816134519 69 182 0.0 3.0 0.00 0.02 0.00 83 1020.5
20220816133747 69 182 1.0 4.0 0.00 0.02 0.00 85 1020.4
20220816133517 69 182 1.0 4.0 0.00 0.02 0.00 85 1020.4
20220816133016 68 185 0.0 3.0 0.00 0.02 0.00 87 1020.4
20220816132246 68 185 0.0 1.0 0.00 0.02 0.00 88 1020.4
20220816131742 68 185 0.0 1.0 0.00 0.02 0.00 88 1020.4
20220816131240 67 185 0.0 1.0 0.00 0.02 0.00 88 1020.4
20220816130743 67 185 0.0 2.0 0.00 0.02 0.00 89 1020.4
20220816130739 67 185 0.0 2.0 0.00 0.02 0.00 89 1020.4
20220816130004 67 185 0.0 1.0 0.00 0.02 0.00 90 1020.3
20220816125230 67 185 0.0 1.0 0.00 0.02 0.00 90 1020.2
20220816124731 67 185 0.0 1.0 0.00 0.02 0.00 90 1020.2
20220816124229 66 185 0.0 0.0 0.00 0.02 0.00 90 1020.1
20220816123957 66 185 0.0 0.0 0.00 0.02 0.00 90 1020.1
20220816123225 66 185 0.0 0.0 0.00 0.02 0.00 90 1020.0
20220816122953 66 185 0.0 0.0 0.00 0.02 0.00 90 1019.9
20220816122828 66 185 0.0 0.0 0.00 0.02 0.00 90 1019.9
20220816121950 66 185 0.0 0.0 0.00 0.02 0.00 90 1019.8
20220816121448 66 185 0.0 0.0 0.00 0.02 0.00 90 1019.6
20220816120714 66 185 0.0 0.0 0.00 0.02 0.00 90 1019.6
20220816120215 66 185 0.0 0.0 0.00 0.02 0.00 90 1019.6
20220816115946 66 185 0.0 0.0 0.00 0.02 0.00 90 1019.5
20220816115214 66 185 0.0 0.0 0.00 0.02 0.00 89 1019.5
20220816114719 66 185 0.0 0.0 0.00 0.02 0.00 89 1019.7
20220816114715 66 185 0.0 0.0 0.00 0.02 0.00 89 1019.6
20220816113711 66 185 0.0 0.0 0.00 0.02 0.00 89 1019.6
20220816113441 66 185 0.0 0.0 0.00 0.02 0.00 89 1019.6
20220816112711 66 185 0.0 0.0 0.00 0.02 0.00 89 1019.6
20220816112211 66 185 0.0 0.0 0.00 0.02 0.00 89 1019.5
20220816111941 66 185 0.0 0.0 0.00 0.02 0.00 90 1019.5
20220816111816 66 185 0.0 0.0 0.00 0.02 0.00 90 1019.3
20220816110941 66 185 0.0 0.0 0.00 0.02 0.00 90 1019.3
20220816110210 66 185 0.0 0.0 0.00 0.02 0.00 90 1019.3
20220816105939 66 185 0.0 0.0 0.00 0.02 0.00 90 1019.3
20220816105812 66 185 0.0 0.0 0.00 0.02 0.00 89 1019.3
20220816104938 66 185 0.0 0.0 0.00 0.02 0.00 90 1019.2
20220816104206 66 185 0.0 0.0 0.00 0.02 0.00 90 1019.2
20220816103707 66 185 0.0 0.0 0.00 0.02 0.00 90 1019.3
20220816103213 66 185 0.0 0.0 0.00 0.02 0.00 89 1019.1
20220816103207 66 185 0.0 0.0 0.00 0.02 0.00 90 1019.2
20220816102707 66 185 0.0 0.0 0.00 0.02 0.00 89 1019.1
20220816101938 66 185 0.0 0.0 0.00 0.02 0.00 89 1019.2
20220816101211 66 185 0.0 0.0 0.00 0.02 0.00 89 1019.4
20220816101207 66 185 0.0 0.0 0.00 0.02 0.00 89 1019.3
20220816100437 66 185 0.0 2.0 0.00 0.02 0.00 89 1019.2
20220816095943 66 185 0.0 0.0 0.00 0.02 0.00 89 1019.4
20220816095707 66 185 0.0 2.0 0.00 0.02 0.00 89 1019.3
20220816095543 66 185 0.0 0.0 0.00 0.02 0.00 89 1019.6
20220816094207 66 185 0.0 0.0 0.00 0.02 0.00 89 1019.5
20220816093711 66 185 0.0 0.0 0.00 0.02 0.00 89 1019.5
20220816093707 66 185 0.0 0.0 0.00 0.02 0.00 89 1019.4
20220816092703 66 185 0.0 0.0 0.00 0.02 0.00 89 1019.5
20220816092157 66 185 0.0 0.0 0.00 0.02 0.00 89 1019.3
20220816091652 66 185 0.0 0.0 0.00 0.02 0.00 89 1019.2
20220816091413 66 185 0.0 0.0 0.00 0.02 0.00 89 1019.2
20220816091246 66 185 0.0 0.0 0.00 0.02 0.00 89 1019.2
20220816090404 66 185 0.0 0.0 0.00 0.02 0.00 89 1019.2
20220816085628 66 185 0.0 0.0 0.00 0.02 0.00 89 1019.2
20220816085121 66 185 0.0 0.0 0.00 0.02 0.00 89 1019.2
20220816084615 66 185 0.0 0.0 0.00 0.02 0.00 89 1019.1
20220816084110 66 185 0.0 0.0 0.00 0.02 0.00 89 1019.1
20220816083834 66 185 0.0 0.0 0.00 0.02 0.00 89 1018.9
20220816083058 66 185 0.0 0.0 0.00 0.02 0.00 89 1018.9
20220816083054 66 185 0.0 0.0 0.00 0.02 0.00 89 1019.1
20220816082045 66 185 0.0 0.0 0.00 0.02 0.00 89 1019.1
20220816081539 66 185 0.0 1.0 0.00 0.02 0.00 89 1019.1
20220816081306 66 185 0.0 1.0 0.00 0.02 0.00 89 1019.1
20220816080528 66 185 0.0 1.0 0.00 0.02 0.00 89 1019.1
20220816080523 66 185 0.0 0.0 0.00 0.02 0.00 89 1019.1
20220816075615 65 185 0.0 0.0 0.00 0.02 0.00 89 1018.9
20220816075610 65 185 0.0 0.0 0.00 0.02 0.00 89 1018.9
20220816074458 65 185 0.0 0.0 0.00 0.02 0.00 89 1019.1
20220816073720 65 185 0.0 0.0 0.00 0.02 0.00 89 1019.1
20220816073445 65 185 0.0 0.0 0.00 0.02 0.00 88 1019.1
20220816072935 65 185 0.0 0.0 0.00 0.02 0.00 88 1019.2
20220816072538 65 185 0.0 0.0 0.00 0.02 0.00 88 1019.1
20220816071927 65 185 0.0 0.0 0.00 0.02 0.00 88 1019.2
20220816071152 65 185 0.0 0.0 0.00 0.02 0.00 88 1019.2
20220816070640 65 185 0.0 0.0 0.00 0.02 0.00 89 1019.2
20220816070514 65 185 0.0 0.0 0.00 0.02 0.00 88 1019.3
20220816070013 65 185 0.0 0.0 0.00 0.02 0.00 88 1019.2
20220816065629 65 185 0.0 0.0 0.00 0.02 0.00 88 1019.2
20220816064445 65 185 0.0 0.0 0.00 0.02 0.00 88 1019.1
20220816063943 65 185 0.0 0.0 0.00 0.02 0.00 88 1019.1
20220816063103 65 185 0.0 0.0 0.00 0.02 0.00 88 1019.1
20220816062328 65 185 0.0 0.0 0.00 0.02 0.00 88 1018.9
20220816062057 65 185 0.0 0.0 0.00 0.02 0.00 88 1018.9
20220816061822 65 185 0.0 0.0 0.00 0.02 0.00 88 1018.8
20220816061054 65 185 0.0 0.0 0.00 0.02 0.00 88 1019.1
20220816060551 65 185 0.0 0.0 0.00 0.02 0.00 88 1018.9
20220816060427 66 185 0.0 0.0 0.00 0.02 0.00 87 1018.9
20220816060052 65 185 0.0 0.0 0.00 0.02 0.00 87 1018.9
20220816054820 66 185 0.0 0.0 0.00 0.02 0.00 87 1018.9
20220816054321 66 185 0.0 0.0 0.00 0.02 0.00 87 1018.9
20220816054053 66 185 0.0 0.0 0.00 0.02 0.00 87 1018.9
20220816053817 66 185 0.0 0.0 0.00 0.02 0.00 87 1018.9
20220816052816 66 185 0.0 0.0 0.00 0.02 0.00 87 1018.9
20220816052316 66 185 0.0 0.0 0.00 0.02 0.00 87 1018.9
20220816052046 66 185 0.0 0.0 0.00 0.02 0.00 86 1018.9
20220816051312 66 185 0.0 0.0 0.00 0.02 0.00 86 1018.9
20220816050810 66 185 0.0 0.0 0.00 0.02 0.00 86 1018.8
20220816050546 66 185 0.0 0.0 0.00 0.02 0.02 86 1018.8
20220816050310 66 185 0.0 0.0 0.00 0.02 0.00 86 1018.7
20220816045540 67 185 0.0 0.0 0.00 0.02 0.02 86 1018.6
20220816045036 67 185 0.0 0.0 0.00 0.02 0.02 85 1018.7
20220816044306 67 185 0.0 0.0 0.00 0.02 0.02 85 1018.8
20220816044031 67 185 0.0 0.0 0.00 0.02 0.02 85 1018.8
20220816043254 67 185 0.0 0.0 0.00 0.02 0.02 85 1018.8
20220816042748 67 185 0.0 0.0 0.01 0.02 0.02 85 1018.8
20220816042242 67 185 0.0 0.0 0.01 0.02 0.02 84 1018.7
20220816041736 67 185 0.0 0.0 0.01 0.02 0.02 84 1018.7
20220816041230 68 185 0.0 0.0 0.01 0.02 0.02 84 1018.7
20220816040955 68 185 0.0 0.0 0.01 0.02 0.02 83 1018.6
20220816040448 68 185 0.0 1.0 0.01 0.02 0.02 83 1018.5
20220816040210 68 185 0.0 0.0 0.01 0.02 0.02 83 1018.5
20220816035811 68 185 0.0 1.0 0.01 0.02 0.02 83 1018.5
20220816034700 69 185 0.0 0.0 0.01 0.02 0.02 82 1018.4
20220816034154 69 185 0.0 0.0 0.01 0.02 0.02 82 1018.4
20220816033919 69 185 0.0 0.0 0.01 0.02 0.02 82 1018.3
20220816033142 69 185 0.0 0.0 0.01 0.02 0.02 82 1018.3
20220816032636 69 185 0.0 0.0 0.00 0.01 0.01 82 1018.2
20220816032631 69 185 0.0 0.0 0.00 0.01 0.01 82 1018.1
20220816031624 69 185 0.0 0.0 0.00 0.01 0.01 81 1018.2
20220816031348 69 185 0.0 0.0 0.00 0.01 0.01 81 1018.2
20220816031223 69 185 0.0 0.0 0.00 0.01 0.01 81 1018.2
20220816030348 70 185 0.0 0.0 0.00 0.01 0.01 80 1018.3
20220816030223 70 185 0.0 0.0 0.00 0.01 0.01 80 1018.2
20220816025953 70 185 0.0 0.0 0.00 0.01 0.01 80 1018.1
20220816025827 70 185 0.0 0.0 0.00 0.01 0.01 79 1018.0
20220816024111 70 185 0.0 0.0 0.00 0.01 0.01 79 1018.0
20220816023844 70 185 0.0 0.0 0.00 0.01 0.01 79 1018.0
20220816023342 71 185 0.0 0.0 0.00 0.01 0.01 79 1018.0
20220816022844 71 185 0.0 0.0 0.00 0.01 0.01 78 1018.1
20220816022340 71 185 0.0 0.0 0.00 0.01 0.01 78 1018.1
20220816021608 71 185 0.0 0.0 0.00 0.01 0.01 78 1018.1
20220816021338 71 185 0.0 0.0 0.00 0.01 0.01 77 1018.1
20220816020608 71 185 0.0 0.0 0.00 0.01 0.01 77 1018.1
20220816020338 72 185 0.0 0.0 0.00 0.01 0.01 76 1018.2
20220816015835 72 185 0.0 0.0 0.00 0.01 0.01 76 1018.2
20220816015103 72 185 0.0 0.0 0.00 0.01 0.01 76 1018.2
20220816014836 72 185 0.0 0.0 0.00 0.01 0.01 75 1018.1
20220816014104 72 185 0.0 0.0 0.00 0.01 0.01 75 1018.1
20220816013608 73 185 0.0 1.0 0.00 0.01 0.01 74 1018.1
20220816013604 72 185 0.0 0.0 0.00 0.01 0.01 75 1018.1